Regional Weather Roundup
Issued by NWS Northern Indiana

Home | Current Version | Previous Version | Text Only | Print | Product List | Glossary Off
Versions: 1 2 3 4 5 6 7 8 9 10 11 12 13 14 15 16 17 18 19 20 21 22 23 24 25 26 27 28 29 30 31 32 33 34 35 36 37 38 39 40 41 42 43 44 45 46 47 48 49 50

000
ASUS43 KIWX 280610
RWRIWX

KIWX WEATHER ROUNDUP
NATIONAL WEATHER SERVICE NORTHERN INDIANA
200 AM EDT SUN AUG 28 2016

NOTE: "FAIR" INDICATES FEW OR NO CLOUDS BELOW 12,000 FEET WITH NO
SIGNIFICANT WEATHER AND/OR OBSTRUCTIONS TO VISIBILITY.

* THESE STATIONS ARE NOT UNDER NWS QUALITY CONTROL. THEY ALSO MAY NOT
  REPORT WEATHER SUCH AS PRECIPITATION OR FOG.

INZ001>027-280700-
NORTHERN INDIANA

CITY           SKY/WX    TMP DP  RH WIND       PRES   REMARKS
GARY*          FAIR      77  75  93 W3        30.11R
VALPARAISO     FAIR      74  72  93 S6        30.11F
6HR MIN TEMP:  74; 6HR MAX TEMP:  80; 6HR PCP: TRACE;

MICHIGAN CITY* FAIR      73  73 100 MISG      30.11R
LAPORTE*       FAIR     N/A N/A N/A SW3       30.12S
KNOX*          FAIR      72  59  64 S5        30.12S
SOUTH BEND     FAIR      74  72  93 S7        30.12R
6HR MIN TEMP:  73; 6HR MAX TEMP:  79;

GOSHEN         FAIR      72  69  90 S7        30.13R
6HR MIN TEMP:  71; 6HR MAX TEMP:  79;

MONTICELLO*    CLEAR     73  69  87 CALM      30.12S
6HR MIN TEMP:  72; 6HR MAX TEMP:  82;

LOGANSPORT*    PTCLDY    70  70 100 CALM      30.14S
ROCHESTER*     FAIR      77  73  88 S5        30.14R
WARSAW*        FAIR      72  72 100 CALM      30.14R
ANGOLA*        CLEAR     70  63  78 CALM      30.14S
FORT WAYNE     PTCLDY    70  67  90 CALM      30.14S
6HR MIN TEMP:  70; 6HR MAX TEMP:  78;

HUNTINGTON*    PTCLDY    69  68  96 CALM      30.14R
6HR MIN TEMP:  69; 6HR MAX TEMP:  78;

PERU/GRISSOM   CLOUDY    71  71 100 SW2       30.13R
6HR MIN TEMP:  71; 6HR MAX TEMP:  81;

MARION*        PTCLDY    69  68  96 CALM      30.15R
6HR MIN TEMP:  51; 6HR MAX TEMP:  90;


$$
INZ028>050-280700-
CENTRAL INDIANA

CITY           SKY/WX    TMP DP  RH WIND       PRES   REMARKS
LAFAYETTE      CLEAR     71  71 100 CALM      30.12R
6HR MIN TEMP:  71; 6HR MAX TEMP:  82;

KOKOMO*        CLOUDY    72  70  94 SW5       30.14R
6HR MIN TEMP:  70; 6HR MAX TEMP:  79;

MUNCIE*        CLEAR     75  71  87 S6        30.14S
6HR MIN TEMP:  73; 6HR MAX TEMP:  81;

INDIANAPOLIS   PTCLDY    75  73  93 CALM      30.13S
6HR MIN TEMP:  75; 6HR MAX TEMP:  81;


$$
MIZ043>046-050>051-056>058-064>065-071>073-077>080-280700-
SOUTHWEST LOWER MICHIGAN

CITY           SKY/WX    TMP DP  RH WIND       PRES   REMARKS
BATTLE CREEK   FAIR      70  70 100 S9        30.13R
6HR MIN TEMP:  70; 6HR MAX TEMP:  75;

BENTON HARBOR  FAIR      73  71  93 CALM      30.10S
6HR MIN TEMP:  73; 6HR MAX TEMP:  81;

COLDWATER*     FAIR      70  70 100 CALM      30.13S FOG
6HR MIN TEMP:  70; 6HR MAX TEMP:  77;

HILLSDALE*     FOG       70  69  96 CALM      30.14F VSB 1/2
6HR MIN TEMP:  51; 6HR MAX TEMP:  84;

HOLLAND        FAIR      75  73  93 SW6       30.10R
6HR MIN TEMP:  72; 6HR MAX TEMP:  78; 6HR PCP: TRACE;

GRAND RAPIDS   FAIR      72  69  90 S5        30.10R
6HR MIN TEMP:  71; 6HR MAX TEMP:  77; 6HR PCP:  0.19;

KALAMAZOO      FAIR      73  70  90 S6        30.12R
6HR MIN TEMP:  73; 6HR MAX TEMP:  79;

STURGIS*       FAIR      71  69  93 CALM      30.13R
6HR MIN TEMP:  70; 6HR MAX TEMP:  78; 6HR PCP:  0.01;

THREE RIVERS*  FAIR      72  72 100 SW3       30.13R

$$
OHZ001>008-015>018-024>025-280700-
NORTHWEST OHIO

CITY           SKY/WX    TMP DP  RH WIND       PRES   REMARKS
WAUSEON*       FOG       70  70 100 CALM      30.13F VSB<1/4
DEFIANCE       FAIR      72  68  87 CALM      30.13S FOG
6HR MIN TEMP:  71; 6HR MAX TEMP:  79;

FINDLAY        FAIR      70  66  87 SE3       30.13R
6HR MIN TEMP:  70; 6HR MAX TEMP:  76;

TOLEDO EXPRESS FAIR      68  68 100 CALM      30.13S FOG
6HR MIN TEMP:  68; 6HR MAX TEMP:  73;

TOLEDO METCALF FAIR      71  70  96 CALM      30.13F FOG
6HR MIN TEMP:  70; 6HR MAX TEMP:  75;

LIMA           CLEAR     71  70  96 S7        30.15R
6HR MIN TEMP:  69; 6HR MAX TEMP:  76;


$$
AND FOR LAKE MICHIGAN COASTAL AND OPEN LAKE BUOY OBSERVATIONS

STATION/POSITION TEMP    WIND        PRES    VSBY  WAVE
                 AIR SEA DIR/SP/G                  HT/PER
                 (F)     (DEG/KT/KT) (MB)    (MI)  (FT/S)
CALUMET HARBOR    77     170/  2/  3 1018.4R
MICHIGAN CITY     78     190/ 10/ 12   N/A
BURNS HARBOR      77     200/  9/ 12 1019.3S
SAINT JOSEPH      76     200/  4/  6 1019.6F
SOUTH LAKE BUOY   75 75  260/ 10/ 12 1018.2R         1
4 MI NW BRIDGMAN  76 75  210/  4/  6 1018.8R         1
MICHIGAN CITY     76 76  280/  4/  4   N/A           1

$$
&&



USA.gov is the U.S. government's official web portal to all federal, state and local government web resources and services.